Lid_Strength_Index
0 -1 -2 -2 -2 -2 -1 -1 -1 -2 -2 -2 -2 -2 -2 -2 -2 -2 -3 -2 -2 -2 -2 -2 -2 -2 -2 -2 -2 -2 -2 -2 -2 -2 -2 -2 -2 -2 -2 -2 -2 -1 -2
-1 -1 -2 -2 -2 -2 -2 -1 -2 -2 -2 -2 -2 -2 -2 -2 -2 -3 -2 -3 -2 -2 -2 -2 -2 -2 -2 -2 -2 -2 -2 -2 -2 -2 -2 -2 -2 -2 -2 -2 -2 -2 -2
-1 -1 -1 -2 -2 -2 -2 -2 -2 -1 -2 -2 -2 -2 -2 -2 -2 -2 -2 -2 -2 -2 -2 -2 -2 -2 -2 -2 -2 -2 -2 -2 -2 -2 -2 -2 -1 -2 -2 -2 -2 -2 -2
-1 -1 -1 -1 -2 -2 -2 -2 -2 -1 -2 -2 -2 -2 -1 -2 -2 -2 -2 -2 -2 -2 -2 -2 -2 -2 -2 -2 -2 -2 -2 -2 -2 -2 -1 -1 -1 -2 -2 -2 -2 -2 -2
-1 -1 -1 -1 -2 -2 -2 -2 -2 -1 -2 -2 -2 -2 -1 -2 -2 -2 -3 -2 -2 -2 -2 -2 -2 -2 -2 -2 -2 -2 -2 -2 -3 -2 -2 -2 -2 -2 -2 -2 -2 -2 -2
-1 -1 -1 -1 -2 -2 -2 -2 -2 -1 -2 -2 -2 -2 -2 -1 -2 -2 -2 -2 -2 -2 -2 -2 -2 -2 -2 -2 -2 -2 -2 -2 -2 -2 -2 -2 -2 -2 -2 -2 -2 -2 -2
-1 -1 -1 -1 -2 -2 -2 -2 -2 -2 -2 -2 -2 -2 -2 -2 -2 -2 -3 -2 -2 -2 -2 -2 -2 -2 -2 -2 -2 -2 -2 -3 -2 -2 -2 -1 -2 -2 -2 -2 -2 -2 -2
-1 -1 -1 -0 -1 -2 -2 -2 -2 -2 -2 -2 -2 -2 -2 -2 -2 -2 -2 -2 -1 -2 -2 -2 -2 -2 -2 -2 -2 -2 -2 -2 -1 -2 -2 -1 -2 -2 -2 -2 -1 -1 -1
-1 -1 -1 -1 -1 -0 -1 -1 -2 -2 -2 -2 -2 -2 -2 -2 -2 -2 -3 -2 -2 -2 -2 -2 -2 -2 -2 -2 -2 -2 -2 -2 -2 -1 -1 -1 -2 -2 -2 -1 -1 -1 -1
-1 -1 -1 -1 -1 -2 -2 -0 -0 -1 -1 -2 -2 -2 -1 -2 -2 -2 -2 -3 -2 -2 -2 -2 -2 -2 -2 -2 -2 -2 -1 -1 -1 -2 -1 -1 -2 -2 -1 -1 -1 -1 -1
0 -0 -1 -1 -1 -1 -1 -0 0 -0 -0 -0 -1 -0 -1 -2 -2 -1 -1 -2 -3 -3 -2 -2 -2 -1 -1 -1 -2 -1 -1 -1 -1 -1 -1 -2 -1 -1 -1 -0 0 -0 0
1 0 -0 -1 -1 -1 -1 -2 -2 -2 -2 -2 -2 -2 -2 -2 -2 -1 -0 -1 -2 -2 -2 -2 -2 -1 -1 -2 -2 -1 -2 -1 -1 -1 -1 -2 -1 -0 -0 0 1 0 1
1 0 -0 -0 -1 -1 -1 -1 -1 -2 -2 -2 -2 -2 -2 -2 -2 -2 -2 -2 -2 -1 -1 -1 -1 -2 -1 -2 -2 -2 -1 -1 -1 -1 -0 -1 -1 0 1 0 1 1 1
1 0 -0 -0 -0 -1 -1 -1 -1 -1 -1 -1 -2 -2 -1 -1 -1 -1 -1 -1 -2 -1 -2 -2 -1 -1 -1 -1 -1 -1 -1 -1 -1 -1 -1 -0 -1 -0 0 1 1 1 1
1 1 -0 -1 -0 -1 0 -1 -1 -1 -1 -1 -2 -2 -1 -1 -1 -1 -1 -1 -1 -1 -1 -1 -1 -1 -1 -1 -1 -1 -1 -1 -1 -0 -1 2 -0 -0 -0 -0 0 1 1
1 1 -0 -0 -0 -0 -0 -1 -1 -1 -1 -1 -1 -1 -1 -0 -0 -0 -1 -1 -1 -0 -0 -1 -1 -1 -1 -0 -0 -1 -1 -1 -1 -0 -0 0 0 -1 -0 -0 -0 -0 0
1 0 0 0 0 0 0 -0 -1 -1 -1 -1 -1 -1 -0 -0 0 0 -0 -0 -0 -0 0 0 -0 -0 0 0 0 0 0 0 -0 -0 -0 -0 -0 0 -1 -0 -0 -0 -0
1 1 0 -0 0 0 0 -0 -0 -1 -1 -1 -0 -1 -0 0 0 1 1 1 1 1 1 1 1 2 2 2 2 2 3 2 2 1 1 0 -0 0 0 -1 -1 -1 -0
1 1 1 0 1 -0 0 0 0 0 -0 -1 -0 1 0 0 0 0 1 1 2 2 2 2 3 3 3 3 4 4 4 4 3 3 2 2 1 1 0 1 -0 -0 -1
1 0 0 0 0 1 0 1 0 0 0 -1 -1 0 1 1 1 1 1 2 2 2 2 3 4 4 4 3 4 5 4 4 4 4 3 3 3 3 3 2 1 0 1
1 1 1 1 0 0 2 2 1 1 0 0 -0 -0 0 1 2 2 2 1 2 3 3 4 4 5 6 5 5 4 4 4 5 5 3 4 3 4 4 4 2 1 0
5 2 1 1 0 0 0 2 1 1 0 -0 -0 0 -0 1 1 2 3 3 3 3 3 3 4 5 5 5 6 6 7 5 5 5 4 4 4 4 4 4 3 2 2
6 6 3 1 0 0 -0 1 0 1 1 1 0 0 -0 -0 1 1 2 2 2 3 4 4 5 5 6 7 7 7 10 10 4 3 5 5 6 5 4 4 5 4 4
5 4 6 5 2 0 -0 0 1 2 2 1 1 0 -0 -1 -0 0 1 2 2 2 3 3 4 4 5 7 10 9 6 8 8 9 9 9 7 6 5 6 5 5 6
5 4 3 2 2 1 -0 0 1 1 1 0 0 0 0 -0 -1 0 0 1 1 2 2 2 3 4 5 5 7 8 10 8 11 11 9 7 8 8 6 8 7 6 7
5 5 4 4 4 1 0 0 1 1 1 1 1 1 1 0 -0 -0 -0 0 1 1 2 2 3 3 4 4 5 6 8 9 9 10 10 9 7 5 9 10 9 8 6